Wetterdaten: aktuell Mittwoch, 27.01.2021 17:55
Datum Zeit Innen Temp. A. Schlaf Feuchte A. Luftdruck Regen Wind
27.01.2021 17:55 23,0 C -0,5 C 14,2 C 76 % 1015,2 hPa 0,0 mm 0,0 km/h
27.01.2021 16:55 23,1 C 1,1 C 14,4 C 69 % 1014,9 hPa 0,0 mm 0,0 km/h
27.01.2021 15:55 23,0 C 3,3 C 14,7 C 63 % 1014,6 hPa 0,0 mm 0,8 km/h
27.01.2021 14:55 22,8 C 3,8 C 14,8 C 63 % 1014,5 hPa 0,3 mm 1,6 km/h
27.01.2021 13:55 22,4 C 4,0 C 14,8 C 59 % 1014,4 hPa 0,0 mm 1,3 km/h
27.01.2021 12:55 22,6 C 5,6 C 14,9 C 57 % 1015,2 hPa 0,0 mm 2,5 km/h
27.01.2021 11:55 23,1 C 3,2 C 15,1 C 65 % 1015,6 hPa 0,0 mm 3,6 km/h
27.01.2021 10:55 23,1 C 2,7 C 15,7 C 73 % 1016,7 hPa 0,0 mm 2,5 km/h
27.01.2021 09:55 22,7 C 0,3 C 15,6 C 83 % 1017,1 hPa 0,0 mm 2,2 km/h
27.01.2021 08:55 23,2 C -2,1 C 15,1 C 89 % 1016,5 hPa 0,0 mm 0,5 km/h
27.01.2021 07:55 22,1 C -3,3 C 14,7 C 88 % 1016,7 hPa 0,0 mm 0,0 km/h
27.01.2021 06:55 22,8 C -3,4 C 14,0 C 88 % 1016,7 hPa 0,0 mm 0,0 km/h
27.01.2021 05:55 22,8 C -2,6 C 13,3 C 87 % 1016,5 hPa 0,0 mm 0,0 km/h
27.01.2021 04:55 22,4 C -2,1 C 13,4 C 87 % 1016,5 hPa 0,0 mm 0,0 km/h
27.01.2021 03:55 22,4 C -2,4 C 13,4 C 86 % 1015,5 hPa 0,0 mm 0,0 km/h
27.01.2021 02:55 22,4 C -2,2 C 13,6 C 86 % 1016,5 hPa 0,0 mm 0,0 km/h
27.01.2021 01:55 22,5 C -2,7 C 13,6 C 85 % 1015,5 hPa 0,0 mm 0,0 km/h
27.01.2021 00:55 22,6 C -2,0 C 13,7 C 82 % 1015,4 hPa 0,0 mm 0,2 km/h
26.01.2021 23:55 22,6 C -0,9 C 13,9 C 79 % 1015,2 hPa 0,0 mm 0,0 km/h
26.01.2021 22:55 22,7 C -0,6 C 13,9 C 79 % 1014,1 hPa 0,0 mm 0,0 km/h
26.01.2021 21:55 22,8 C 0,0 C 13,9 C 76 % 1014,0 hPa 0,0 mm 0,0 km/h
26.01.2021 20:55 23,0 C -0,8 C 14,0 C 77 % 1014,2 hPa 0,0 mm 0,0 km/h
26.01.2021 19:55 23,1 C -0,4 C 14,0 C 77 % 1014,1 hPa 0,0 mm 2,2 km/h
26.01.2021 18:55 23,1 C 0,0 C 14,1 C 74 % 1014,0 hPa 0,0 mm 0,0 km/h
26.01.2021 18:00 23,1 C 1,1 C 14,3 C 68 % 1013,9 hPa 0,0 mm 0,8 km/h
_ Min-Zeit 07:35 06:40 06:05 13:10 18:00 - 18:05
Minimum _ 21,9 C -3,4 C 13,2 C 55 % 1013,9 hPa - 0,0 km/h
_ Max-Zeit 09:05 12:40 11:00 08:05 09:45 14:40 10:10
Maximum _ 23,4 C 6,1 C 15,8 C 89 % 1017,2 hPa 0,3 mm 13,0 km/h
N
Durchschnitt _ 22,8 C 0,1 C 14,3 C 76 % 1015,3 hPa #0,3 mm 0,6 km/h